Location: Hylvaty SDH
(49.9612°N, 16.4057°E)
Time: 21:10:06
(UTC+01:00)

Vanguard 1 Rocket - Pass Details

Date: 05 October 2020
Orbit: 656 x 4221 km, 34.3° (Epoch: 30 October)

Event Time Altitude Azimuth Distance (km) Brightness Sun altitude
Rises 21:59:43 0° 270° (W) 5,952 12.2 -33.7°
Reaches altitude 10° 22:03:32 10° 262° (W) 5,378 11.7 -34.1°
Maximum altitude 22:18:25 35° 205° (SSW) 4,895 10.8 -35.9°
Enters shadow 22:24:26 31° 181° (S) 5,421 10.9 -36.6°
Drops below altitude 10° 22:39:21 10° 150° (SSE) 7,418 - -38.3°
Sets 22:46:04 0° 143° (SE) 8,390 - -38.9°
